Havre, MT

3:44 AM MDT on June 24, 2017 (GMT -0600)
Havre City-County

Weather History for KHVR - August, 2013

Change the Weather History Date:

Tuesday, August 13, 2013

  Actual Average Record
Temperature  
Mean Temperature 70 °F 69 °F  
Max Temperature 83 °F 86 °F 101 °F (2001)
Min Temperature 57 °F 53 °F 36 °F (2005)
Degree Days  
Heating Degree Days 0 1  
Month to date heating degree days 8 11  
Since 1 June heating degree days 129 174  
Since 1 July heating degree days 16 41  
Cooling Degree Days 5 6  
Month to date cooling degree days 33 84  
Year to date cooling degree days 229 305  
Since 1 June cooling degree days 222 294  
Growing Degree Days 20 (Base 50)    
Moisture  
Dew Point 56 °F    
Average Humidity 62    
Maximum Humidity 86    
Minimum Humidity 37    
Precipitation  
Precipitation 0.00 in 0.04 in 0.80 in (1986)
Month to date precipitation 0.93 0.45  
Year to date precipitation 14.89 8.01  
Snow  
Snow 0.00 in 0.00 in T in (1951)
Month to date snowfall 0.0 0.0  
Since 1 June snowfall 0.0 0.0  
Since 1 July snowfall 0.0 0.0  
Snow Depth 0.00 in    
Sea Level Pressure  
Sea Level Pressure 30.04 in    
Wind  
Wind Speed 8 mph (ESE)    
Max Wind Speed 29 mph    
Max Gust Speed 37 mph    
Visibility 10 miles    
Events      
T = Trace of Precipitation, MM = Missing Value Source: NWS Daily Summary

Daily Weather History Graph

Daily Weather History Graph

Search for Another Location

Airport or City:

Trip Planner

Search our weather history database for the weather conditions in past years. The results will help you decide how hot, cold, wet, or windy it might be!

Date:

Astronomy

Aug. 13, 2013 Rise Set
Actual Time 6:10 AM MDT 8:36 PM MDT
Civil Twilight 5:35 AM MDT 9:11 PM MDT
Nautical Twilight 4:51 AM MDT 9:54 PM MDT
Astronomical Twilight 4:00 AM MDT 10:45 PM MDT
Moon 1:47 PM MDT (8/13) 11:33 PM MDT (8/13)
Length of Visible Light 15h 36m
Length of Day
14h 26m
Waxing Crescent, 42% of the Moon is Illuminated
Aug 13
Waxing Crescent
Aug 14
First Quarter
Aug 20
Full
Aug 28
Last Quarter
Sep 5
New

Hourly Weather History & Observations

Time (MDT) Temp. Heat Index Dew Point Humidity Pressure Visibility Wind Dir Wind Speed Gust Speed Precip Events Conditions
12:53 AM 63.0 °F - 57.9 °F 84% 30.08 in 10.0 mi ESE 23.0 mph 29.9 mph 0.00 in   Clear
1:53 AM 64.0 °F - 55.9 °F 75% 30.09 in 10.0 mi SE 15.0 mph - N/A   Scattered Clouds
2:53 AM 64.9 °F - 55.0 °F 70% 30.02 in 10.0 mi East 15.0 mph - N/A   Scattered Clouds
3:53 AM 64.0 °F - 54.0 °F 70% 30.04 in 10.0 mi NE 5.8 mph - N/A   Clear
4:53 AM 64.0 °F - 53.1 °F 67% 30.04 in 10.0 mi East 11.5 mph - N/A   Clear
5:53 AM 60.1 °F - 54.0 °F 80% 30.06 in 10.0 mi SE 4.6 mph - N/A   Clear
6:53 AM 57.9 °F - 54.0 °F 87% 30.10 in 10.0 mi WSW 3.5 mph - N/A   Clear
7:53 AM 62.1 °F - 55.9 °F 80% 30.10 in 10.0 mi SSW 4.6 mph - N/A   Clear
8:53 AM 66.0 °F - 55.9 °F 70% 30.10 in 10.0 mi SW 8.1 mph - N/A   Clear
9:53 AM 69.1 °F - 57.0 °F 65% 30.10 in 10.0 mi SSW 5.8 mph - N/A   Clear
10:53 AM 73.0 °F - 57.0 °F 57% 30.10 in 10.0 mi Calm Calm - N/A   Clear
11:53 AM 77.0 °F - 55.0 °F 47% 30.09 in 10.0 mi NE 3.5 mph - N/A   Clear
12:53 PM 78.1 °F - 57.0 °F 48% 30.07 in 10.0 mi ESE 8.1 mph - N/A   Clear
1:53 PM 80.1 °F 80.2 °F 55.9 °F 43% 30.06 in 10.0 mi East 8.1 mph - N/A   Clear
2:53 PM 82.0 °F 81.6 °F 55.9 °F 41% 30.04 in 10.0 mi ENE 6.9 mph - N/A   Clear
3:53 PM 82.0 °F 81.3 °F 54.0 °F 38% 30.02 in 10.0 mi East 12.7 mph 17.3 mph N/A   Clear
4:53 PM 82.9 °F 82.0 °F 55.0 °F 38% 30.00 in 10.0 mi East 5.8 mph 16.1 mph N/A   Clear
5:53 PM 82.0 °F 81.4 °F 55.0 °F 39% 30.00 in 10.0 mi ESE 8.1 mph - N/A   Clear
6:53 PM 81.0 °F 81.1 °F 57.9 °F 45% 29.99 in 10.0 mi ESE 9.2 mph - N/A   Clear
7:53 PM 78.1 °F - 59.0 °F 52% 29.99 in 10.0 mi East 8.1 mph - N/A   Clear
8:53 PM 73.9 °F - 60.1 °F 62% 30.00 in 10.0 mi East 10.4 mph - N/A   Clear
9:53 PM 72.0 °F - 59.0 °F 64% 30.01 in 10.0 mi East 10.4 mph - N/A   Clear
10:53 PM 72.0 °F - 59.0 °F 64% 30.00 in 10.0 mi East 10.4 mph - N/A   Clear
11:53 PM 69.1 °F - 57.9 °F 68% 29.99 in 10.0 mi East 9.2 mph - N/A   Clear